This is the latest recevied weather packets stored in our database for station/object KO4FQW-11. If no packets are shown the sender has not sent any weather packets the latest 10 day(s).
| Time | Temp. | Humidity | Pressure | Rain* | Wind** | Luminosity | Snow |
|---|---|---|---|---|---|---|---|
| 1788463531 | 33.89° C | 50% | 1014 hPa | 0 mm | - | - | - |
| 1788448170 | 28.33° C | 70% | 1016 hPa | 0 mm | - | - | - |
| 1788447211 | 28.33° C | 70% | 1016 hPa | 0 mm | - | - | - |
| 1788446252 | 25.56° C | 80% | 1016 hPa | 0 mm | - | - | - |
| 1788445290 | 25.56° C | 80% | 1016 hPa | 0 mm | - | - | - |
| 1788444485 | 25.56° C | 80% | 1016 hPa | 0 mm | - | - | - |
| 1788443370 | 25.56° C | 80% | 1016 hPa | 0 mm | - | - | - |
| 1788442410 | 22.22° C | 92% | 1016 hPa | 0 mm | - | - | - |
| 1788441800 | 22.22° C | 92% | 1016 hPa | 0 mm | - | - | - |
| 1788438570 | 20° C | 89% | 1015 hPa | 0 mm | - | - | - |
| 1788437912 | 20° C | 89% | 1015 hPa | 0 mm | - | - | - |
| 1788437611 | 20° C | 89% | 1015 hPa | 0 mm | - | - | - |
| 1788435690 | 20° C | 89% | 1015 hPa | 0 mm | - | - | - |
| 1788435176 | 20.56° C | 90% | 1015 hPa | 0 mm | - | - | - |
| 1788434730 | 20.56° C | 90% | 1015 hPa | 0 mm | - | - | - |
| 1788434068 | 20.56° C | 90% | 1015 hPa | 0 mm | - | - | - |
| 1788433773 | 20.56° C | 90% | 1015 hPa | 0 mm | - | - | - |
| 1788431029 | 20.56° C | 90% | 1015 hPa | 0 mm | - | - | - |
| 1788430890 | 20.56° C | 90% | 1015 hPa | 0 mm | - | - | - |
| 1788429930 | 20.56° C | 90% | 1015 hPa | 0 mm | - | - | - |
| 1788429107 | 20.56° C | 90% | 1015 hPa | 0 mm | - | - | - |
| 1788428970 | 20.56° C | 90% | 1015 hPa | 0 mm | - | - | - |
| 1788428010 | 20.56° C | 90% | 1016 hPa | 0 mm | - | - | - |
| 1788427051 | 20.56° C | 90% | 1016 hPa | 0 mm | - | - | - |
| 1788424537 | 21.11° C | 94% | 1016 hPa | 0 mm | - | - | - |
* Rain latest hour (hover to see other rain measurements)
** Current wind speed in m/s (hover to see current wind gust speed)